Regional Weather Roundup
Issued by NWS

Home | Current Version | Previous Version | Text Only | Print | Product List | Glossary On
Versions: 1 2 3 4 5 6 7 8 9 10 11 12 13 14 15 16 17 18 19 20 21 22 23 24 25 26 27 28 29 30 31 32 33 34 35 36 37 38 39 40 41 42 43 44 45 46 47 48 49 50
000
ASUS43 KTOP 222308
RWRKS

WEATHER ROUNDUP FOR KANSAS
NATIONAL WEATHER SERVICE GOODLAND KS
600 PM CDT FRI AUG 22 2014

NOTE:  "FAIR" INDICATES FEW OR NO CLOUDS BELOW 12,000 FEET WITH NO
SIGNIFICANT WEATHER AND/OR OBSTRUCTIONS TO VISIBILITY.

KSZ001>006-013>018-027>032-041>047-230000-
NORTHWEST KANSAS

CITY           SKY/WX    TMP DP  RH WIND       PRES   REMARKS
GOODLAND       PTSUNNY   83  63  50 E16       29.97R
HAYS           MOSUNNY   99  64  32 S13       29.84R HX 101
HILL CITY      PTSUNNY   93  69  45 NE13      29.88F HX  98
RUSSELL        MOSUNNY   98  63  31 S14       29.83R HX 100
$$

KSZ061>065-074>080-084>089-230000-
SOUTHWEST KANSAS

CITY           SKY/WX    TMP DP  RH WIND       PRES   REMARKS
DODGE CITY     PTSUNNY   88  65  46 CALM      29.88R
ELKHART          N/A     95  54  25 S23         N/A
GARDEN CITY    CLOUDY    86  63  45 E12       29.87F
GREAT BEND     MOSUNNY   99  64  32 SE20      29.84R HX 101
LIBERAL        MOSUNNY   97  55  24 S20G30    29.86F HX  95
PRATT          MOSUNNY   91  64  40 NE6       29.86F
$$

KSZ066>073-081>083-090>101-230000-
SOUTHEAST KANSAS

CITY           SKY/WX    TMP DP  RH WIND       PRES   REMARKS
CHANUTE        MOSUNNY   84  63  49 W10G22    29.92R
COFFEYVILLE    SUNNY     97  72  44 S12       29.90R HX 105
HUTCHINSON     TSTM      80  69  69 S31G47    29.89R
MEDICINE LODGE   N/A    101  59  24 S18G28    29.82R HX 101
NEWTON         MOSUNNY   97  66  36 SE14G23   29.91S HX 100
PARSONS        MOSUNNY   97  71  42 SW8       29.93R HX 104
WICHITA INTL   MOSUNNY   99  64  31 S17       29.85S HX 101
WICHITA JABRA  MOSUNNY   97  66  36 S21G29    29.87S HX 100
WICHITA MCCONL MOSUNNY   97  67  37 SE14      29.88S HX 101
WINFIELD       SUNNY     97  68  38 SE13      29.89S HX 102
$$

KSZ007>012-019>026-033>040-048>060-102>105-230000-
NORTHEAST KANSAS

CITY           SKY/WX    TMP DP  RH WIND       PRES   REMARKS
CONCORDIA      MOSUNNY   88  73  61 SE9       29.87S HX  95
EMPORIA        LGT RAIN  75  65  70 S10       29.89F
LAWRENCE       PTSUNNY   97  72  44 W3        29.89S HX 105
MANHATTAN      CLOUDY    91  71  51 S9        29.88R HX  97
MARYSVILLE     MOSUNNY   82  73  74 CALM      29.90R
OLATHE IND     PTSUNNY   86  70  58 SE7       29.92R
OLATHE EXE     PTSUNNY   87  69  54 VRB3      29.91R
SALINA         MOSUNNY   98  70  40 SE20G28   29.83F HX 105
TOPEKA BILLARD LGT RAIN  89  73  59 SE8       29.89F HX  97
TOPEKA FORBES  PTSUNNY   89  70  53 SE5       29.90F
$$



USA.gov is the U.S. government's official web portal to all federal, state and local government web resources and services.